FW2439 Weather Reports


time (UTC)temp
F
wind
direction
speed
knots
gust
knots
rain 1hr
in
rain 24hr
in
rain mn
in
humidity
%
barometer
mb
20260510164604 81 288 0.0 2.6 0.00 0.00 0.00 64 1017.1
20260510163113 79 225 0.0 3.5 0.00 0.00 0.00 65 1017.2
20260510161545 80 250 1.7 4.3 0.00 0.00 0.00 65 1017.1
20260510160041 79 269 0.0 2.6 0.00 0.00 0.00 71 1016.9
20260510154538 79 307 0.0 3.5 0.00 0.00 0.00 72 1016.8
20260510153054 78 5 0.9 3.5 0.00 0.00 0.00 73 1016.6
20260510151536 78 242 0.0 6.1 0.00 0.00 0.00 74 1016.9
20260510150039 77 190 0.9 5.2 0.00 0.00 0.00 76 1017.2
20260510144540 76 244 0.9 6.1 0.00 0.00 0.00 77 1016.9
20260510143035 77 181 0.0 2.6 0.00 0.00 0.00 78 1016.7
20260510141525 74 283 0.9 3.5 0.00 0.00 0.00 82 1016.7
20260510140022 74 322 0.0 5.2 0.00 0.00 0.00 83 1016.7
20260510134519 72 163 0.9 4.3 0.00 0.00 0.00 88 1016.8
20260510133014 68 264 0.0 6.1 0.00 0.00 0.00 96 1016.7
20260510131521 66 234 0.0 2.6 0.00 0.00 0.00 100 1016.7
20260510130005 62 190 0.0 0.0 0.00 0.00 0.00 100 1016.5
20260510124501 60 190 0.0 0.9 0.00 0.00 0.00 100 1016.6
20260510123059 60 190 0.0 0.0 0.00 0.00 0.00 99 1016.7
20260510121555 59 236 0.0 0.0 0.00 0.00 0.00 99 1016.3
20260510120053 59 236 0.0 0.0 0.00 0.00 0.00 99 1016.2
20260510114550 58 236 0.0 0.9 0.00 0.00 0.00 99 1015.9
20260510113047 57 236 0.0 0.0 0.00 0.00 0.00 99 1015.5
20260510111547 56 236 0.0 0.0 0.00 0.00 0.00 99 1015.1
20260510110043 54 236 0.0 0.0 0.00 0.00 0.00 98 1015.0
20260510104548 54 236 0.0 0.0 0.00 0.00 0.00 98 1014.9
20260510103039 54 236 0.0 0.0 0.00 0.00 0.00 98 1014.6
20260510101541 54 236 0.0 0.0 0.00 0.00 0.00 98 1014.5
20260510100101 55 236 0.0 0.0 0.00 0.00 0.00 98 1014.4
20260510094550 56 236 0.0 0.0 0.00 0.00 0.00 98 1014.1
20260510093037 56 236 0.0 0.0 0.00 0.00 0.00 98 1014.1
20260510091531 54 236 0.0 0.0 0.00 0.00 0.00 98 1014.1
20260510090035 54 236 0.0 0.0 0.00 0.00 0.00 98 1014.0
20260510084527 53 236 0.0 0.0 0.00 0.00 0.00 97 1013.9
20260510083030 53 236 0.0 0.0 0.00 0.00 0.00 97 1013.8
20260510081528 53 236 0.0 0.0 0.00 0.00 0.00 97 1013.8
20260510080029 52 236 0.0 0.0 0.00 0.00 0.00 97 1013.9
20260510074525 52 236 0.0 0.0 0.00 0.00 0.00 97 1014.1
20260510073024 52 236 0.0 0.0 0.00 0.00 0.00 96 1014.1
20260510071524 52 236 0.0 0.0 0.00 0.00 0.00 96 1014.0
20260510070029 52 236 0.0 0.0 0.00 0.00 0.00 96 1013.9
20260510064521 52 236 0.0 0.0 0.00 0.00 0.00 96 1013.7
20260510063019 52 236 0.0 0.0 0.00 0.00 0.00 96 1013.5
20260510061516 52 236 0.0 0.0 0.00 0.00 0.00 95 1013.6
20260510060015 53 236 0.0 0.0 0.00 0.00 0.00 95 1013.5
20260510054515 53 236 0.0 0.0 0.00 0.00 0.00 95 1013.5
20260510053012 53 236 0.0 0.9 0.00 0.00 0.00 95 1013.5
20260510051510 53 236 0.0 0.0 0.00 0.00 0.00 94 1013.4
20260510050007 54 236 0.0 0.0 0.00 0.00 0.00 94 1013.1
20260510044506 54 236 0.0 0.0 0.00 0.00 0.00 93 1013.2
20260510043006 55 236 0.0 0.0 0.00 0.00 0.00 93 1013.1
20260510041505 55 236 0.0 0.0 0.00 0.00 0.00 92 1013.2
20260510040009 55 236 0.0 0.0 0.00 0.00 0.00 91 1013.2
20260510034503 56 236 0.0 0.0 0.00 0.00 0.00 91 1013.4
20260510033003 56 236 0.0 0.0 0.00 0.00 0.00 90 1013.4
20260510031502 57 236 0.0 0.0 0.00 0.00 0.00 88 1013.4
20260510030000 57 236 0.0 0.0 0.00 0.00 0.00 87 1013.4
20260510024559 58 236 0.0 0.0 0.00 0.00 0.00 86 1013.2
20260510023058 59 236 0.0 0.0 0.00 0.00 0.00 85 1013.0
20260510021555 60 236 0.0 0.0 0.00 0.00 0.00 84 1012.6
20260510020054 61 236 0.0 0.0 0.00 0.00 0.00 83 1012.6
20260510014553 62 236 0.0 0.0 0.00 0.00 0.00 80 1012.4
20260510013051 64 236 0.0 0.0 0.00 0.00 0.00 77 1012.1
20260510011549 65 236 0.0 0.0 0.00 0.00 0.00 73 1012.0
20260510010048 67 236 0.0 0.0 0.00 0.00 0.00 70 1011.8
20260510004547 69 236 0.0 0.0 0.00 0.00 0.00 65 1011.6
20260510003047 71 236 0.0 0.0 0.00 0.00 0.00 60 1011.4
20260510001548 74 236 0.0 0.0 0.00 0.00 0.00 57 1011.3
20260509234555 78 236 0.0 0.9 0.00 0.00 0.00 49 1011.1
20260509233049 79 229 0.0 0.9 0.00 0.00 0.00 46 1011.0
20260509231546 79 229 0.0 0.9 0.00 0.00 0.00 44 1010.8
20260509230043 82 229 0.0 1.7 0.00 0.00 0.00 36 1010.8
20260509224542 84 229 0.0 2.6 0.00 0.00 0.00 37 1010.8
20260509223043 82 241 0.0 3.5 0.00 0.00 0.00 36 1010.8
20260509221543 82 262 0.0 3.5 0.00 0.00 0.00 37 1010.8
20260509220037 83 221 0.0 2.6 0.00 0.00 0.00 36 1010.8
20260509214538 82 269 0.0 2.6 0.00 0.00 0.00 38 1010.9
20260509213039 83 234 0.0 3.5 0.00 0.00 0.00 40 1010.9
20260509211534 83 224 0.0 1.7 0.00 0.00 0.00 41 1010.8
20260509210040 82 311 0.0 1.7 0.00 0.00 0.00 45 1010.7
20260509204538 83 324 0.0 1.7 0.00 0.00 0.00 41 1010.9
20260509203029 82 287 0.0 2.6 0.00 0.00 0.00 41 1010.9
20260509201530 81 153 0.0 3.5 0.00 0.00 0.00 42 1010.8
20260509200027 81 323 0.9 2.6 0.00 0.00 0.00 46 1011.0
20260509194527 81 185 0.9 2.6 0.00 0.00 0.00 45 1011.1
20260509193027 81 275 0.9 6.1 0.00 0.00 0.00 47 1011.2
20260509191527 80 277 0.9 6.1 0.00 0.00 0.00 46 1011.2
20260509190021 80 273 0.0 3.5 0.00 0.00 0.00 49 1011.3
20260509184534 80 247 0.0 2.6 0.00 0.00 0.00 54 1011.4
20260509183017 79 257 0.0 1.7 0.00 0.00 0.00 54 1011.6
20260509181514 78 259 0.9 5.2 0.00 0.00 0.00 51 1011.5
20260509180014 78 245 0.9 3.5 0.00 0.00 0.00 52 1011.7
20260509174510 77 91 0.9 4.3 0.00 0.00 0.00 56 1011.7
20260509173007 77 272 0.9 3.5 0.00 0.00 0.00 55 1011.7
20260509171504 77 319 0.9 3.5 0.00 0.00 0.00 60 1011.7
20260509170002 76 327 0.0 3.5 0.00 0.00 0.00 60 1011.7